Regional Weather Roundup
Issued by NWS

Home | Current Version | Previous Version | Graphics & Text | Print | Product List | Glossary On
Versions: 1 2 3 4 5 6 7 8 9 10 11 12 13 14 15 16 17 18 19 20 21 22 23 24 25 26 27 28 29 30 31 32 33 34 35 36 37 38 39 40 41 42 43 44 45 46 47 48 49 50
000
ASUS43 KLMK 221302
RWRKY
KENTUCKY REGIONAL WEATHER ROUNDUP
NATIONAL WEATHER SERVICE LOUISVILLE KY
900 AM EDT SAT APR 22 2017

NOTE "FAIR" INDICATES FEW OR NO CLOUDS BELOW 12,000 FEET
WITH NO SIGNIFICANT WEATHER AND/OR OBSTRUCTIONS TO VISIBILITY.

KYZ001>023-026-027-061>063-070>075-221400-
WESTERN AND SOUTH CENTRAL KENTUCKY

CITY           SKY/WX    TMP DP  RH WIND       PRES   REMARKS
PADUCAH        CLOUDY    50  46  86 N12       29.93R
HENDERSON      CLOUDY    48  45  89 NE15      29.95R
OWENSBORO      CLOUDY    49  46  90 NE12G18   29.96R
HOPKINSVILLE   CLOUDY    53  52  95 NE9       29.88R
BOWLING GREEN  CLOUDY    53  52  96 E14       29.88F
GLASGOW        NOT AVBL
$$

KYZ024-025-028>034-038-045-046-053-221400-
NORTH CENTRAL KENTUCKY

CITY           SKY/WX    TMP DP  RH WIND       PRES   REMARKS
LOUISVILLE/SDF LGT RAIN  49  46  90 NE12      29.98S
LOUISVILLE/LOU LGT RAIN  49  44  83 NE8       29.99S
FORT KNOX      LGT RAIN  48  47  99 NE12G22   29.92S
$$

KYZ035>037-039>044-047>052-055>060-089>105-221400-
NORTHEAST KENTUCKY

CITY           SKY/WX    TMP DP  RH WIND       PRES   REMARKS
LEXINGTON      RAIN      48  45  89 NE12      29.99F FOG
COVINGTON      CLOUDY    48  40  73 NE17      30.02F
FRANKFORT      LGT RAIN  48  44  86 NE8       29.98F FOG
$$

KYZ054-064>069-076>088-106>120-221400-
SOUTHEAST KENTUCKY

CITY           SKY/WX    TMP DP  RH WIND       PRES   REMARKS
JACKSON        LGT RAIN  51  48  89 CALM      29.98R
LONDON         RAIN      51  48  89 N12       29.94F FOG
SOMERSET       RAIN      50  50 100 N6        29.97S
MIDDLESBORO    RAIN      57  56  98 NE9       29.92R
MONTICELLO     RAIN      53  52  96 N10G20    29.96S
$$





USA.gov is the U.S. government's official web portal to all federal, state and local government web resources and services.